Location: Unspecified
(38.0989°N, 0.6729°W)
Time: 01:37:26
(UTC+02:00)

X-37B - Visible Passes

Search period start: 11 June 2023 00:00
Search period end: 21 June 2023 00:00
Orbit: 277 x 277 km, 45.0° (Epoch: 01 November)

Date Brightness Start Highest point End Pass type
(mag) Time Alt. Az. Time Alt. Az. Time Alt. Az.
11 Jun 3.0 04:14:20 13° E 04:14:20 13° E 04:14:44 10° E visible
11 Jun 1.6 05:44:29 10° W 05:46:41 28° NNW 05:48:53 10° NE visible
12 Jun 2.7 04:14:42 19° ENE 04:14:42 19° ENE 04:15:33 10° ENE visible
12 Jun 2.2 05:45:31 10° WNW 05:47:30 21° NNW 05:49:28 10° NE visible
13 Jun 2.5 04:15:04 23° NE 04:15:04 23° NE 04:16:13 10° NE visible
13 Jun 2.6 05:46:35 10° NW 05:48:20 17° N 05:50:05 10° NE visible
14 Jun 2.4 04:15:25 24° NNE 04:15:25 24° NNE 04:16:48 10° NE visible
14 Jun 2.8 05:47:33 10° NW 05:49:12 16° N 05:50:50 10° NE visible
15 Jun 2.5 04:15:47 21° N 04:15:47 21° N 04:17:22 10° NE visible
15 Jun 2.9 05:48:24 10° NW 05:50:04 16° N 05:51:44 10° NE visible
16 Jun 2.7 04:16:11 18° N 04:16:11 18° N 04:17:59 10° NE visible
16 Jun 2.8 05:49:05 10° NW 05:50:55 18° N 05:52:44 10° ENE visible
17 Jun 2.8 04:16:37 16° NNW 04:17:01 16° N 04:18:41 10° NE visible
17 Jun 2.5 05:49:42 10° NW 05:51:45 23° NNE 05:53:47 10° ENE visible
18 Jun 2.9 04:17:10 14° NNW 04:17:53 16° N 04:19:31 10° NE visible
18 Jun 1.8 05:50:16 10° NW 05:52:32 32° NNE 05:54:48 10° E visible
19 Jun 2.8 04:17:54 15° NNW 04:18:45 17° N 04:20:30 10° NE visible
19 Jun 0.6 05:50:52 10° NW 05:53:17 56° NNE 05:55:42 10° ESE visible
20 Jun 2.6 04:18:59 19° N 04:19:36 21° NNE 04:21:33 10° ENE visible
20 Jun -0.2 05:51:32 10° WNW 05:53:58 71° SSW 05:56:24 10° SE visible
